Time,TemperatureF,DewpointF,PressureIn,WindDirection,WindDirectionDegrees,WindSpeedMPH,WindSpeedGustMPH,Humidity,HourlyPrecipIn,Conditions,Clouds,dailyrainin,SoftwareType,DateUTC
2013-01-17 00:04:00,74.0,70.0,30.03,SSE,150,0.0,14.0,88,0.00,,,0.00,,2013-01-17 05:04:00,
2013-01-17 00:12:00,74.0,70.0,30.03,SSE,150,0.0,14.0,88,0.00,,,0.00,,2013-01-17 05:12:00,
2013-01-17 00:22:00,74.0,70.0,30.03,SSE,160,0.0,12.0,88,0.00,,,0.00,,2013-01-17 05:22:00,
2013-01-17 00:33:00,74.0,70.0,30.02,SSE,158,12.0,16.0,88,0.00,,,0.00,,2013-01-17 05:33:00,
2013-01-17 00:42:00,74.0,70.0,30.02,SSE,158,12.0,16.0,88,0.00,,,0.00,,2013-01-17 05:42:00,
2013-01-17 00:53:00,74.0,70.0,30.02,SSE,163,14.0,16.0,87,0.00,,,0.00,,2013-01-17 05:53:00,
2013-01-17 01:02:00,74.0,70.0,30.02,SSE,163,13.0,17.0,86,0.00,,,0.00,,2013-01-17 06:02:00,
2013-01-17 01:12:00,74.0,69.0,30.02,South,173,14.0,16.0,85,0.00,,,0.00,,2013-01-17 06:12:00,
2013-01-17 01:22:00,74.0,69.0,30.02,South,173,14.0,16.0,85,0.00,,,0.00,,2013-01-17 06:22:00,
2013-01-17 01:32:00,74.0,69.0,30.02,SSE,167,13.0,16.0,85,0.00,,,0.00,,2013-01-17 06:32:00,
2013-01-17 01:42:00,74.0,69.0,30.02,SSE,167,13.0,16.0,85,0.00,,,0.00,,2013-01-17 06:42:00,
2013-01-17 01:53:00,74.0,69.0,30.02,South,171,13.0,16.0,85,0.00,,,0.00,,2013-01-17 06:53:00,
2013-01-17 02:02:00,74.0,69.0,30.02,South,174,4.0,15.0,85,0.00,,,0.00,,2013-01-17 07:02:00,
2013-01-17 02:12:00,74.0,69.0,30.02,South,174,4.0,15.0,85,0.00,,,0.00,,2013-01-17 07:12:00,
2013-01-17 02:22:00,74.0,69.0,30.03,South,181,13.0,17.0,85,0.00,,,0.00,,2013-01-17 07:22:00,
2013-01-17 02:33:00,75.0,70.0,30.02,South,181,14.0,16.0,85,0.00,,,0.00,,2013-01-17 07:33:00,
2013-01-17 02:42:00,75.0,70.0,30.02,South,181,14.0,16.0,85,0.00,,,0.00,,2013-01-17 07:42:00,
2013-01-17 02:53:00,75.0,70.0,30.02,South,175,14.0,17.0,85,0.00,,,0.00,,2013-01-17 07:53:00,
2013-01-17 03:02:00,75.0,70.0,30.02,SSW,192,14.0,17.0,85,0.00,,,0.00,,2013-01-17 08:02:00,
2013-01-17 03:12:00,75.0,70.0,30.02,SSW,192,14.0,17.0,85,0.00,,,0.00,,2013-01-17 08:12:00,
2013-01-17 03:22:00,75.0,70.0,30.01,South,175,14.0,17.0,85,0.00,,,0.00,,2013-01-17 08:22:00,
2013-01-17 03:32:00,75.0,70.0,30.02,South,177,13.0,17.0,85,0.00,,,0.00,,2013-01-17 08:32:00,
2013-01-17 03:43:00,75.0,70.0,30.02,South,177,13.0,17.0,85,0.00,,,0.00,,2013-01-17 08:43:00,
2013-01-17 03:53:00,74.0,69.0,30.02,South,179,13.0,16.0,85,0.00,,,0.00,,2013-01-17 08:53:00,
2013-01-17 04:02:00,75.0,70.0,30.01,South,179,15.0,16.0,85,0.00,,,0.00,,2013-01-17 09:02:00,
2013-01-17 04:12:00,75.0,70.0,30.01,South,179,15.0,16.0,85,0.00,,,0.00,,2013-01-17 09:12:00,
2013-01-17 04:22:00,74.0,69.0,30.02,South,186,13.0,15.0,85,0.00,,,0.00,,2013-01-17 09:22:00,
2013-01-17 04:32:00,74.0,69.0,30.02,South,184,14.0,15.0,85,0.00,,,0.00,,2013-01-17 09:32:00,
2013-01-17 04:42:00,74.0,69.0,30.02,South,184,14.0,15.0,85,0.00,,,0.00,,2013-01-17 09:42:00,
2013-01-17 04:53:00,74.0,69.0,30.01,South,182,13.0,16.0,84,0.00,,,0.00,,2013-01-17 09:53:00,
2013-01-17 05:02:00,75.0,70.0,30.02,South,179,12.0,15.0,84,0.00,,,0.00,,2013-01-17 10:02:00,
2013-01-17 05:12:00,75.0,70.0,30.02,South,179,12.0,15.0,84,0.00,,,0.00,,2013-01-17 10:12:00,
2013-01-17 05:22:00,75.0,70.0,30.01,South,184,12.0,15.0,84,0.00,,,0.00,,2013-01-17 10:22:00,
2013-01-17 05:32:00,75.0,70.0,30.02,South,178,13.0,15.0,84,0.00,,,0.00,,2013-01-17 10:32:00,
2013-01-17 05:42:00,75.0,70.0,30.02,South,178,13.0,15.0,84,0.00,,,0.00,,2013-01-17 10:42:00,
2013-01-17 05:53:00,75.0,70.0,30.02,South,189,11.0,14.0,84,0.00,,,0.00,,2013-01-17 10:53:00,
2013-01-17 06:02:00,75.0,70.0,30.02,South,181,12.0,14.0,85,0.00,,,0.00,,2013-01-17 11:02:00,
2013-01-17 06:12:00,75.0,70.0,30.02,South,181,12.0,14.0,85,0.00,,,0.00,,2013-01-17 11:12:00,
2013-01-17 06:22:00,75.0,70.0,30.02,South,178,10.0,13.0,85,0.00,,,0.00,,2013-01-17 11:22:00,
2013-01-17 06:33:00,75.0,70.0,30.03,South,182,11.0,12.0,85,0.00,,,0.00,,2013-01-17 11:33:00,
2013-01-17 06:43:00,75.0,70.0,30.03,South,182,11.0,12.0,85,0.00,,,0.00,,2013-01-17 11:43:00,
2013-01-17 06:53:00,75.0,70.0,30.02,South,176,13.0,15.0,85,0.00,,,0.00,,2013-01-17 11:53:00,
2013-01-17 07:02:00,75.0,70.0,30.03,South,179,11.0,14.0,85,0.00,,,0.00,,2013-01-17 12:02:00,
2013-01-17 07:12:00,75.0,70.0,30.03,South,179,11.0,14.0,85,0.00,,,0.00,,2013-01-17 12:12:00,
2013-01-17 07:23:00,75.0,70.0,30.04,South,178,12.0,14.0,85,0.00,,,0.00,,2013-01-17 12:23:00,
2013-01-17 07:33:00,75.0,70.0,30.04,South,179,12.0,14.0,85,0.00,,,0.00,,2013-01-17 12:33:00,
2013-01-17 07:43:00,75.0,70.0,30.04,South,179,12.0,14.0,85,0.00,,,0.00,,2013-01-17 12:43:00,
2013-01-17 07:53:00,75.0,71.0,30.04,South,185,12.0,14.0,86,0.00,,,0.00,,2013-01-17 12:53:00,
2013-01-17 08:03:00,75.0,71.0,30.04,South,179,13.0,15.0,86,0.00,,,0.00,,2013-01-17 13:03:00,
2013-01-17 08:12:00,75.0,71.0,30.04,South,179,13.0,15.0,86,0.00,,,0.00,,2013-01-17 13:12:00,
2013-01-17 08:23:00,75.0,71.0,30.06,South,177,12.0,14.0,86,0.00,,,0.00,,2013-01-17 13:23:00,
2013-01-17 08:33:00,75.0,71.0,30.05,South,187,12.0,16.0,86,0.00,,,0.00,,2013-01-17 13:33:00,
2013-01-17 08:43:00,75.0,71.0,30.05,South,187,12.0,16.0,86,0.00,,,0.00,,2013-01-17 13:43:00,
2013-01-17 08:53:00,76.0,71.0,30.06,South,175,13.0,15.0,85,0.00,,,0.00,,2013-01-17 13:53:00,
2013-01-17 09:03:00,76.0,71.0,30.06,South,177,11.0,14.0,85,0.00,,,0.00,,2013-01-17 14:03:00,
2013-01-17 09:12:00,76.0,71.0,30.06,South,177,11.0,14.0,85,0.00,,,0.00,,2013-01-17 14:12:00,
2013-01-17 09:23:00,74.0,69.0,30.07,NNW,339,0.0,2.0,85,0.01,,,0.01,,2013-01-17 14:23:00,
2013-01-17 09:33:00,74.0,70.0,30.08,WNW,288,1.0,7.0,87,0.01,,,0.01,,2013-01-17 14:33:00,
2013-01-17 09:43:00,74.0,70.0,30.08,WNW,288,1.0,7.0,87,0.01,,,0.01,,2013-01-17 14:43:00,
2013-01-17 09:53:00,72.0,69.0,30.09,NW,305,12.0,18.0,89,0.01,,,0.01,,2013-01-17 14:53:00,
2013-01-17 10:03:00,71.0,68.0,30.09,NNW,337,14.0,19.0,90,0.01,,,0.01,,2013-01-17 15:03:00,
2013-01-17 10:12:00,71.0,68.0,30.09,NNW,337,14.0,19.0,90,0.01,,,0.01,,2013-01-17 15:12:00,
2013-01-17 10:23:00,70.0,67.0,30.10,NNW,337,1.0,17.0,91,0.00,,,0.01,,2013-01-17 15:23:00,
2013-01-17 10:33:00,71.0,68.0,30.09,NNW,348,2.0,9.0,91,0.00,,,0.01,,2013-01-17 15:33:00,
2013-01-17 10:43:00,71.0,68.0,30.09,NNW,348,2.0,9.0,91,0.00,,,0.01,,2013-01-17 15:43:00,
2013-01-17 10:53:00,71.0,67.0,30.09,NNW,348,0.0,5.0,87,0.00,,,0.01,,2013-01-17 15:53:00,
2013-01-17 11:03:00,71.0,67.0,30.09,NNW,344,0.0,6.0,87,0.01,,,0.02,,2013-01-17 16:03:00,
2013-01-17 11:12:00,71.0,67.0,30.09,NNW,344,0.0,6.0,87,0.01,,,0.02,,2013-01-17 16:12:00,
2013-01-17 11:23:00,71.0,68.0,30.09,WNW,295,14.0,24.0,90,0.09,,,0.10,,2013-01-17 16:23:00,
2013-01-17 11:33:00,70.0,67.0,30.09,WNW,287,15.0,20.0,91,0.10,,,0.11,,2013-01-17 16:33:00,
2013-01-17 11:43:00,70.0,67.0,30.09,WNW,287,15.0,20.0,91,0.10,,,0.11,,2013-01-17 16:43:00,
2013-01-17 11:53:00,69.0,67.0,30.09,NW,304,0.0,0.0,92,0.14,,,0.15,,2013-01-17 16:53:00,
2013-01-17 12:03:00,69.0,67.0,30.08,NNW,340,0.0,0.0,92,0.14,,,0.16,,2013-01-17 17:03:00,
2013-01-17 12:13:00,69.0,67.0,30.08,NNW,340,0.0,0.0,92,0.14,,,0.16,,2013-01-17 17:13:00,
2013-01-17 12:23:00,70.0,67.0,30.07,NNW,344,2.0,9.0,91,0.06,,,0.16,,2013-01-17 17:23:00,
2013-01-17 12:33:00,70.0,67.0,30.06,NNW,346,1.0,5.0,90,0.05,,,0.16,,2013-01-17 17:33:00,
2013-01-17 12:43:00,70.0,67.0,30.06,NNW,346,1.0,5.0,90,0.05,,,0.16,,2013-01-17 17:43:00,
2013-01-17 12:53:00,72.0,68.0,30.04,NNW,347,0.0,1.0,87,0.01,,,0.16,,2013-01-17 17:53:00,
2013-01-17 13:04:00,72.0,67.0,30.04,NNW,347,0.0,2.0,85,0.00,,,0.16,,2013-01-17 18:04:00,
2013-01-17 13:12:00,72.0,67.0,30.04,NNW,347,0.0,2.0,85,0.00,,,0.16,,2013-01-17 18:12:00,
2013-01-17 13:23:00,74.0,67.0,30.03,NNW,347,0.0,0.0,79,0.00,,,0.16,,2013-01-17 18:23:00,
2013-01-17 13:33:00,74.0,67.0,30.02,NNW,347,0.0,0.0,78,0.00,,,0.16,,2013-01-17 18:33:00,
2013-01-17 13:43:00,74.0,67.0,30.02,NNW,347,0.0,0.0,78,0.00,,,0.16,,2013-01-17 18:43:00,
2013-01-17 13:53:00,75.0,67.0,30.01,NNW,348,0.0,0.0,76,0.00,,,0.16,,2013-01-17 18:53:00,
2013-01-17 14:03:00,75.0,67.0,30.01,NNW,347,0.0,0.0,77,0.00,,,0.16,,2013-01-17 19:03:00,
2013-01-17 14:13:00,75.0,67.0,30.01,NNW,347,0.0,0.0,77,0.00,,,0.16,,2013-01-17 19:13:00,
2013-01-17 14:23:00,76.0,66.0,30.01,NNW,347,0.0,0.0,71,0.00,,,0.16,,2013-01-17 19:23:00,
2013-01-17 14:33:00,76.0,65.0,30.00,NNW,347,0.0,3.0,69,0.00,,,0.16,,2013-01-17 19:33:00,
2013-01-17 14:43:00,76.0,65.0,30.00,NNW,347,0.0,3.0,69,0.00,,,0.16,,2013-01-17 19:43:00,
2013-01-17 14:53:00,77.0,66.0,30.00,West,275,0.0,5.0,70,0.00,,,0.16,,2013-01-17 19:53:00,
2013-01-17 15:03:00,77.0,66.0,30.00,NW,310,0.0,3.0,68,0.00,,,0.16,,2013-01-17 20:03:00,
2013-01-17 15:12:00,77.0,66.0,30.00,NW,310,0.0,3.0,68,0.00,,,0.16,,2013-01-17 20:12:00,
2013-01-17 15:23:00,76.0,66.0,30.00,NW,307,0.0,3.0,71,0.00,,,0.16,,2013-01-17 20:23:00,
2013-01-17 15:33:00,77.0,67.0,30.00,West,273,0.0,4.0,71,0.00,,,0.16,,2013-01-17 20:33:00,
2013-01-17 15:43:00,77.0,67.0,30.00,West,273,0.0,4.0,71,0.00,,,0.16,,2013-01-17 20:43:00,
2013-01-17 15:54:00,78.0,68.0,30.00,WSW,250,0.0,4.0,72,0.00,,,0.16,,2013-01-17 20:54:00,
2013-01-17 16:03:00,78.0,69.0,30.01,WSW,250,0.0,2.0,73,0.00,,,0.16,,2013-01-17 21:03:00,
2013-01-17 16:13:00,78.0,69.0,30.01,WSW,250,0.0,2.0,73,0.00,,,0.16,,2013-01-17 21:13:00,
2013-01-17 16:23:00,78.0,68.0,30.01,WSW,244,3.0,6.0,72,0.00,,,0.16,,2013-01-17 21:23:00,
2013-01-17 16:34:00,78.0,68.0,30.01,WSW,245,0.0,4.0,71,0.00,,,0.16,,2013-01-17 21:34:00,
2013-01-17 16:43:00,78.0,68.0,30.01,WSW,245,0.0,4.0,71,0.00,,,0.16,,2013-01-17 21:43:00,
2013-01-17 16:53:00,78.0,69.0,30.01,WSW,253,3.0,7.0,73,0.00,,,0.16,,2013-01-17 21:53:00,
2013-01-17 17:03:00,78.0,69.0,30.01,WSW,247,0.0,5.0,74,0.00,,,0.16,,2013-01-17 22:03:00,
2013-01-17 17:12:00,78.0,69.0,30.01,WSW,247,0.0,5.0,74,0.00,,,0.16,,2013-01-17 22:12:00,
2013-01-17 17:23:00,78.0,69.0,30.01,West,261,0.0,5.0,75,0.00,,,0.16,,2013-01-17 22:23:00,
2013-01-17 17:33:00,77.0,69.0,30.01,West,267,0.0,0.0,76,0.00,,,0.16,,2013-01-17 22:33:00,
2013-01-17 17:43:00,77.0,69.0,30.01,West,267,0.0,0.0,76,0.00,,,0.16,,2013-01-17 22:43:00,
2013-01-17 17:53:00,76.0,68.0,30.02,WNW,286,0.0,5.0,77,0.00,,,0.16,,2013-01-17 22:53:00,
2013-01-17 18:03:00,76.0,69.0,30.02,WNW,283,0.0,3.0,78,0.00,,,0.16,,2013-01-17 23:03:00,
2013-01-17 18:12:00,76.0,69.0,30.02,WNW,283,0.0,3.0,78,0.00,,,0.16,,2013-01-17 23:12:00,
2013-01-17 18:23:00,75.0,68.0,30.02,West,279,0.0,1.0,79,0.00,,,0.16,,2013-01-17 23:23:00,
2013-01-17 18:33:00,75.0,69.0,30.03,NW,306,1.0,5.0,82,0.00,,,0.16,,2013-01-17 23:33:00,
2013-01-17 18:43:00,75.0,69.0,30.03,NW,306,1.0,5.0,82,0.00,,,0.16,,2013-01-17 23:43:00,
2013-01-17 18:53:00,75.0,69.0,30.03,NNW,337,0.0,7.0,81,0.00,,,0.16,,2013-01-17 23:53:00,
2013-01-17 19:03:00,74.0,68.0,30.04,North,356,0.0,21.0,82,0.00,,,0.16,,2013-01-18 00:03:00,
2013-01-17 19:12:00,74.0,68.0,30.04,North,356,0.0,21.0,82,0.00,,,0.16,,2013-01-18 00:12:00,
2013-01-17 19:23:00,73.0,67.0,30.05,North,360,0.0,0.0,82,0.00,,,0.16,,2013-01-18 00:23:00,
2013-01-17 19:32:00,73.0,67.0,30.05,North,360,0.0,0.0,82,0.00,,,0.16,,2013-01-18 00:32:00,
2013-01-17 19:42:00,72.0,66.0,30.05,North,350,0.0,19.0,82,0.00,,,0.16,,2013-01-18 00:42:00,
2013-01-17 19:53:00,72.0,67.0,30.06,NNE,20,0.0,21.0,83,0.00,,,0.16,,2013-01-18 00:53:00,
2013-01-17 20:03:00,72.0,67.0,30.06,North,7,0.0,21.0,83,0.00,,,0.16,,2013-01-18 01:03:00,
2013-01-17 20:13:00,72.0,67.0,30.06,North,7,0.0,21.0,83,0.00,,,0.16,,2013-01-18 01:13:00,
2013-01-17 20:23:00,70.0,65.0,30.06,NNW,346,0.0,0.0,83,0.00,,,0.16,,2013-01-18 01:23:00,
2013-01-17 20:33:00,70.0,65.0,30.07,NNW,336,0.0,0.0,83,0.00,,,0.16,,2013-01-18 01:33:00,
2013-01-17 20:43:00,70.0,65.0,30.07,NNW,336,0.0,0.0,83,0.00,,,0.16,,2013-01-18 01:43:00,
2013-01-17 20:53:00,69.0,63.0,30.08,North,357,0.0,0.0,82,0.00,,,0.16,,2013-01-18 01:53:00,
2013-01-17 21:03:00,69.0,63.0,30.09,North,11,0.0,0.0,82,0.00,,,0.16,,2013-01-18 02:03:00,
2013-01-17 21:12:00,69.0,63.0,30.09,North,11,0.0,0.0,82,0.00,,,0.16,,2013-01-18 02:12:00,
2013-01-17 21:22:00,69.0,63.0,30.09,North,349,0.0,22.0,82,0.00,,,0.16,,2013-01-18 02:22:00,
2013-01-17 21:33:00,69.0,63.0,30.10,North,8,0.0,0.0,81,0.00,,,0.16,,2013-01-18 02:33:00,
2013-01-17 21:42:00,69.0,63.0,30.10,North,8,0.0,0.0,81,0.00,,,0.16,,2013-01-18 02:42:00,
2013-01-17 21:53:00,69.0,63.0,30.09,North,350,0.0,10.0,80,0.00,,,0.16,,2013-01-18 02:53:00,
2013-01-17 22:02:00,69.0,63.0,30.10,North,1,0.0,3.0,80,0.00,,,0.16,,2013-01-18 03:02:00,
2013-01-17 22:12:00,69.0,63.0,30.10,North,1,0.0,3.0,80,0.00,,,0.16,,2013-01-18 03:12:00,
2013-01-17 22:23:00,68.0,61.0,30.10,North,360,0.0,0.0,79,0.00,,,0.16,,2013-01-18 03:23:00,
2013-01-17 22:33:00,68.0,61.0,30.09,NNE,15,0.0,1.0,79,0.00,,,0.16,,2013-01-18 03:33:00,
2013-01-17 22:42:00,68.0,61.0,30.09,NNE,15,0.0,1.0,79,0.00,,,0.16,,2013-01-18 03:42:00,
2013-01-17 22:53:00,68.0,62.0,30.09,North,358,0.0,2.0,81,0.00,,,0.16,,2013-01-18 03:53:00,
2013-01-17 23:02:00,67.0,61.0,30.10,North,10,0.0,0.0,80,0.00,,,0.16,,2013-01-18 04:02:00,
2013-01-17 23:12:00,67.0,61.0,30.10,North,10,0.0,0.0,80,0.00,,,0.16,,2013-01-18 04:12:00,
2013-01-17 23:22:00,67.0,61.0,30.10,North,352,0.0,0.0,80,0.00,,,0.16,,2013-01-18 04:22:00,
2013-01-17 23:33:00,67.0,60.0,30.10,North,359,0.0,0.0,79,0.00,,,0.16,,2013-01-18 04:33:00,
2013-01-17 23:42:00,67.0,60.0,30.10,North,359,0.0,0.0,79,0.00,,,0.16,,2013-01-18 04:42:00,
2013-01-17 23:53:00,67.0,60.0,30.11,North,360,0.0,0.0,78,0.00,,,0.16,,2013-01-18 04:53:00,